Showing default

LEGION 6, 62901

Orbit data source: Space-Track

LEGION 6, 62901 is a payload satellite owned by Maxar Intel (US) in LEO that was launched on Tue, 04 Feb 2025 UTC via an FALCON 9 launch vehicle from the Air Force Eastern Test Range (AFETR). Payload-class satellites include a variety of spacecraft equipped with specific instruments for various scientific and technological missions. These include communications satellites like Starlink; space stations such as the ISS; scientific satellites like the Hubble; Earth observation satellites from companies like Planet Labs, Umbra, and HawkEye 360; GPS; miniature CubeSats for education and research; and military/defense satellites.

Loading next visibility...
Identifier
62901, 2025-025B
Orbit
LEO
Last TLE update
1 day ago
Origin
Manufacturer
Maxar Space Inf
Mission
Operational Commercial Imaging
Bus & Motor
LEGION, Unknown motor
Mass
~700 kg wet, 630 kg dry
Launch date (UTC)
2025-02-04 (3 months ago)
Launch vehicle
FALCON 9
Launch site
Air Force Eastern Test Range (AFETR)
Object type
Payload
Rocket body
Debris
Shape & HBR
Box + 1 Pan, 5 m
Radar Cross Section
9.079 m², Large (>1 m²)

Expand to show TLE details & history

TLE from 1 day ago
0 LEGION 6
1 62901U 25025B   25128.30170208  .00015069  00000-0  37837-3 0  9993
2 62901  44.9932 219.1624 0013307 309.9932  49.9787 15.39841025 14226
Epoch: 2025-05-08T07:14Z
Definitive object data (Epoch: 2025-05-08T07:14:27.059Z)
Latitude
-0.00002°
Longitude
-115.82452°
Altitude
440.744 km
Speed
7.652 km/s
True Right ascension
14h 36m 38s
True Declination
0° 00' 00"
Sunlit
Object was in full shadow at TLE epoch
Visualization TLE readout
Latitude
28.95186°
Longitude
-87.89755°
Altitude
446.674 km
Speed
7.649 km/s
Apparent Right ascension
19h 58m 48s
Apparent Declination
-17° 56' 46"
Sunlit
Object is in full shadow
Visualization observer readout
Local Sidereal Time
14:55:42
Azimuth
112.731° SE
Elevation
-1.054°
Doppler factor
1
Orbital elements
Apogee altitude
457.282 km
Perigee altitude
439.114 km
Semi-major axis
6,826.335 km
Eccentricity
0.0013307
Inclination
44.9932°
RAAN
219.1624°
Arg. of periapsis
309.9932°
True anomaly
50.0956°
Mean anomaly
49.9787°
Eccentric anomaly
50.03714°
Mean motion
3.84824 °/min
BSTAR
0.00037837
Orbital period
93.55 mins
Loading maneuver chart data...
Loading SW <> Apogee altitude chart data...
Loading historical data...
Loading historical data...
Loading historical data...
Loading historical data...
Loading historical data...
Loading historical data...
Loading historical data...
Other satellites on launch #25 in the year 2025 (2025-02-04 UTC)

LEGION 6 Visibility forecast

Observer location: undefined°, undefined°

Span
Click to sort rows by Start time (UTC) header in descending order
Start Az.
Max El. time (UTC)
Max El. Az.
Max El.
End time (UTC)
End Az.
5 mins2025-05-09 08:19:49.372Z188.361° SSW2025-05-09 08:21:49.372Z151.241° SSE19.053°2025-05-09 08:24:49.372Z92.81° ESE
5 mins2025-05-09 09:57:49.372Z253.48° W2025-05-09 09:59:49.372Z325.995° NNW44.341°2025-05-09 10:02:49.372Z64.142° ENE
4 mins2025-05-09 11:36:49.372Z311.582° NW2025-05-09 11:37:49.372Z342.807° N29.696°2025-05-09 11:40:49.372Z59.594° ENE
5 mins2025-05-09 13:14:49.372Z312.127° NW2025-05-09 13:16:49.372Z31.49° NE35.879°2025-05-09 13:19:49.372Z89.469° E
5 mins2025-05-09 14:52:49.372Z270.242° WNW2025-05-09 14:54:49.372Z194.815° SSW34.475°2025-05-09 14:57:49.372Z138.525° SSE
|